Location: Guadanolo
(41.9167°N, 12.9333°E)
Time: 15:02:49
(UTC+00:00)

NOSS 0 Rocket - Pass Details

Date: 16 September 2019
Orbit: 935 x 955 km, 70.0° (Epoch: 18 October)

Event Time Altitude Azimuth Distance (km) Brightness Sun altitude
Rises 18:58:48 0° 336° (NNW) 3,618 7.7 -19.3°
Reaches altitude 10° 19:01:21 10° 338° (NNW) 2,673 6.9 -19.7°
Maximum altitude 19:07:33 71° 63° (ENE) 1,004 3.9 -20.8°
Enters shadow 19:10:04 37° 136° (SE) 1,426 4.4 -21.2°
